星链-6270 (STARLINK-6270 )

导读

STARLINK-6270是美国太空探索技术公司(SpaceX)星链互联网卫星星座中的一颗卫星,于2023年5月4日发射入轨。星链项目旨在构建全球卫星互联网,为全球偏远地区等提供高速网络服务,该卫星的发射是SpaceX扩充星链星座部署计划的一部分。

Basic Information
目录编号:
56421
目录名称:
STARLINK-6270
国际标识:
2023-061AZ
轨道中心:
EARTH
卫星名称:
星链-6270
卫星全名:
星链-6270 (STARLINK-6270 )
卫星状态:
在轨 (已飞行1220 天)
发射日期:
2023-05-04 UTC
国别 :
美国 (US)
星等 :
--
Orbit Information
数据来源 国际轨道数据 AOE轨道数据
星历时间 2026-09-05T09:59:06+0800
16小时前
查看轨道信息
2026-08-30T08:00:00+0800
6天前
查看轨道信息
半长轴 6861.19km 6861.24km
偏心率 0.0001339 0.0000663
轨道倾角 43.002° 43.002°
近地点辐角 261.763° 304.307°
升交点赤经 250.014° 284.367°
平近点角 98.307° 46.027°
近地点 482.134km 482.648km
远地点 483.972km 483.558km
周期 94.267分钟 94.268分钟
每日圈数 15.275789 15.275621
Detailed Information
固有亮度:
5
最大亮度:
2.5
卫星平台:
Starlink v1.5
覆盖范围:
全球
运营商:
太空探索技术公司
运营商所在国:
美国
制造商(研发单位):
太空探索技术公司
制造商所在国:
美国
使用方式:
暂无
Satellite Introduction
星链(Starlink)计划是由太空探索技术公司(SpaceX)提出的一个巨型低轨卫星互联网星座项目,计划在2019年至2024年间在太空搭建由约1.2万颗卫星组成的“星链”网络,其中1584颗将部署在地球上空550千米处的近地轨道,并从2020年开始工作。该卫星仍在工作。
2D Orbit Map
3D Orbit Map
Orbit Altitude Analysis Chart
Orbit Inclination Analysis Chart
Orbit Comprehensive Analysis Chart
View Comprehensive Chart
Conjunction Data List
Event ID Objects TCA Miss Dist (km) Collision Risk Probability Collision Risk Index (CRI) Action
CDM_260830-033205-642106-978621
2026-08-30T
03:32:56+0000
1.605 km
极远距离
2.177545E-6 低风险 0.42
CDM_260830-071805-642106-267022
2026-08-30T
07:18:00+0000
2.877 km
极远距离
1.00831E-6 低风险 0.35